Location: Strawberry
(45.6646°N, 111.9596°W)
Time: 16:43:43
(UTC+00:00)

Explorer 7 - All Passes

Search period start: 26 September 2022 00:00
Search period end: 06 October 2022 00:00
Orbit: 482 x 668 km, 50.3° (Epoch: 25 September)

Date Brightness Start Highest point End Pass type
(mag) Time Alt. Az. Time Alt. Az. Time Alt. Az.
26 Sep - 00:11:51 10° WNW 00:16:14 46° N 00:20:22 10° E daylight
26 Sep - 01:52:33 10° WNW 01:56:57 89° NNE 02:01:04 10° ESE visible
26 Sep - 03:33:38 10° W 03:36:53 22° SW 03:39:58 10° S visible
26 Sep - 19:14:14 10° S 19:17:24 18° SE 19:20:30 10° E daylight
26 Sep - 20:52:32 10° SW 20:57:17 70° SSE 21:01:51 10° ENE daylight
26 Sep - 22:33:20 10° W 22:37:55 51° N 22:42:15 10° ENE daylight
27 Sep - 00:14:25 10° WNW 00:18:50 50° N 00:23:01 10° E daylight
27 Sep - 01:55:03 10° WNW 01:59:25 68° SSW 02:03:29 10° SE visible
27 Sep - 03:36:49 10° W 03:39:06 14° SW 03:41:19 10° SSW visible
27 Sep - 19:15:43 10° SSW 19:19:39 25° SE 19:23:30 10° E daylight
27 Sep - 20:54:58 10° WSW 20:59:45 90° WNW 21:04:21 10° ENE daylight
27 Sep - 22:35:59 10° W 22:40:31 47° N 22:44:48 10° ENE daylight
28 Sep - 00:16:56 10° WNW 00:21:25 57° NNE 00:25:37 10° E daylight
28 Sep - 01:57:36 10° WNW 02:01:49 48° SW 02:05:46 10° SE visible
28 Sep - 19:17:33 10° SSW 19:21:58 36° SE 19:26:15 10° ENE daylight
28 Sep - 20:57:28 10° WSW 21:02:15 72° NNW 21:06:50 10° ENE daylight
28 Sep - 22:38:36 10° WNW 22:43:06 46° N 22:47:23 10° ENE daylight
29 Sep - 00:19:26 10° WNW 00:23:58 70° NNE 00:28:12 10° ESE daylight
29 Sep - 02:00:13 10° WNW 02:04:09 33° SW 02:07:51 10° SSE visible
29 Sep - 17:43:01 10° SSE 17:44:38 12° SE 17:46:15 10° ESE daylight
29 Sep - 19:19:38 10° SW 19:24:18 51° SE 19:28:51 10° ENE daylight
29 Sep - 21:00:03 10° W 21:04:47 60° NNW 21:09:19 10° ENE daylight
29 Sep - 22:41:12 10° WNW 22:45:42 47° N 22:50:00 10° E daylight
30 Sep - 00:21:55 10° WNW 00:26:28 88° NNE 00:30:43 10° ESE daylight
30 Sep - 02:02:59 10° W 02:06:25 23° SW 02:09:42 10° S visible
30 Sep - 17:43:37 10° S 17:46:49 18° SE 17:49:59 10° E daylight
30 Sep - 19:21:53 10° SW 19:26:42 69° SSE 19:31:22 10° ENE daylight
30 Sep - 21:02:39 10° W 21:07:20 52° N 21:11:49 10° ENE daylight
30 Sep - 22:43:44 10° WNW 22:48:18 51° N 22:52:36 10° E daylight
01 Oct - 00:24:24 10° WNW 00:28:55 70° SSW 00:33:07 10° SE daylight
01 Oct - 02:06:04 10° W 02:08:37 15° SW 02:11:05 10° SSW visible
01 Oct - 17:45:05 10° SSW 17:49:02 25° SE 17:52:58 10° E daylight
01 Oct - 19:24:17 10° WSW 19:29:08 90° SSE 19:33:51 10° ENE daylight
01 Oct - 21:05:17 10° W 21:09:54 48° N 21:14:21 10° ENE daylight
01 Oct - 22:46:14 10° WNW 22:50:51 58° NNE 22:55:12 10° E daylight
02 Oct - 00:26:54 10° WNW 00:31:17 50° SW 00:35:24 10° SE daylight
02 Oct - 17:46:54 10° SSW 17:51:19 36° SE 17:55:41 10° ENE daylight
02 Oct - 19:26:46 10° WSW 19:31:37 73° NNW 19:36:19 10° ENE daylight
02 Oct - 21:07:53 10° WNW 21:12:30 47° N 21:16:55 10° ENE daylight
02 Oct - 22:48:43 10° WNW 22:53:23 70° NNE 22:57:46 10° ESE daylight
03 Oct - 00:29:29 10° WNW 00:33:36 35° SW 00:37:28 10° SSE daylight
03 Oct - 16:12:25 10° SSE 16:14:00 11° SE 16:15:34 10° ESE daylight
03 Oct - 17:48:57 10° SW 17:53:38 50° SE 17:58:15 10° ENE daylight
03 Oct - 19:29:20 10° W 19:34:07 61° NNW 19:38:46 10° ENE daylight
03 Oct - 21:10:27 10° WNW 21:15:05 48° N 21:19:30 10° E daylight
03 Oct - 22:51:10 10° WNW 22:55:51 87° NNE 23:00:15 10° ESE daylight
04 Oct - 00:32:13 10° W 00:35:51 24° SW 00:39:18 10° S daylight
04 Oct - 16:12:59 10° S 16:16:09 17° SE 16:19:19 10° E daylight
04 Oct - 17:51:11 10° SW 17:56:00 69° SSE 18:00:45 10° ENE daylight
04 Oct - 19:31:54 10° W 19:36:39 53° N 19:41:15 10° ENE daylight
04 Oct - 21:12:59 10° WNW 21:17:38 51° N 21:22:05 10° E daylight
04 Oct - 22:53:38 10° WNW 22:58:17 71° SSW 23:02:39 10° SE daylight
05 Oct - 00:35:13 10° W 00:38:02 16° SW 00:40:44 10° S daylight
05 Oct - 16:14:24 10° S 16:18:20 25° SE 16:22:17 10° E daylight
05 Oct - 17:53:33 10° WSW 17:58:25 89° SE 18:03:13 10° ENE daylight
05 Oct - 19:34:30 10° W 19:39:12 49° N 19:43:46 10° ENE daylight
05 Oct - 21:15:28 10° WNW 21:20:11 58° NNE 21:24:40 10° E daylight
05 Oct - 22:56:07 10° WNW 23:00:39 51° SW 23:04:54 10° SE daylight
